SCP
0 0 0 0 0 0 0 0 0 0 0 0 0 0 0 0 0 0 0 0 0 0 0 0 0 0 0 0 0 0 0 -0 -0 -0 -0 0 0 0 0 0 0 0 0
0 0 0 0 0 0 0 0 0 0 0 0 0 0 0 0 0 0 0 0 0 0 0 0 0 0 0 0 0 0 0 -0 -0 -0 -0 0 0 0 0 0 0 0 0
0 0 0 0 0 0 0 0 0 0 0 0 0 0 0 0 0 0 0 0 0 0 0 0 0 0 0 0 0 0 0 -0 -0 -0 0 0 0 0 0 0 0 0 0
0 0 0 0 0 0 0 0 0 0 0 0 0 0 0 0 0 0 0 0 0 0 0 0 0 0 0 0 0 0 0 0 0 0 0 0 0 0 0 0 0 0 0
0 0 0 0 0 0 0 0 0 0 0 0 0 0 0 0 0 0 0 0 0 0 0 0 0 0 0 0 0 0 0 0 0 0 0 0 0 0 0 0 0 0 0
0 0 0 0 0 0 0 0 0 0 0 0 0 0 0 0 0 0 0 0 0 0 0 0 0 0 0 0 0 0 0 0 0 0 0 0 0 0 0 0 0 0 0
0 0 0 0 0 0 0 0 0 0 0 0 0 0 0 0 0 0 0 0 0 0 0 0 0 0 0 0 0 0 0 0 0 0 0 0 0 0 0 0 0 0 0
0 0 0 0 0 0 0 0 0 0 0 0 0 0 0 0 0 0 0 0 0 0 0 0 0 0 0 0 0 0 0 0 0 0 0 0 -0 -0 -0 -0 0 0 0
0 0 0 0 0 0 0 0 0 0 0 0 0 0 0 0 0 0 0 0 0 0 0 0 0 0 0 0 0 0 0 0 0 0 0 0 -0 -0 -0 -0 0 0 0
0 0 0 0 0 0 0 0 0 0 0 0 0 0 0 0 0 0 0 0 0 0 0 0 0 0 0 0 0 0 0 0 0 0 0 0 0 0 0 0 0 0 0
0 0 0 0 0 0 0 0 0 0 0 0 0 0 0 0 0 0 0 0 0 0 0 0 0 -0 -0 -0 -0 -0 0 0 0 0 0 0 0 0 0 0 0 0 0
0 0 0 0 0 0 0 0 0 0 0 0 0 0 0 0 0 0 0 0 0 0 0 0 0 -0 -0 -0 -0 -0 0 0 0 0 0 0 0 0 0 0 0 0 0
0 0 0 0 0 0 0 0 0 0 0 0 0 0 0 0 0 0 0 0 0 0 0 0 0 -0 -0 -0 -0 -0 0 0 0 0 0 0 0 0 0 0 0 0 0
0 0 0 0 0 0 0 0 0 0 0 0 0 0 0 0 0 0 0 0 0 0 0 0 0 0 0 -0 -0 -0 -0 0 0 0 0 0 0 0 0 0 0 0 0
0 0 0 0 0 0 0 0 0 0 0 0 0 0 0 0 0 0 0 0 0 0 0 0 0 0 0 0 0 -0 -0 -0 -0 -0 -0 0 0 0 0 0 0 0 0
0 0 0 0 0 0 0 0 0 0 0 0 0 0 0 0 0 0 0 0 0 0 0 0 0 0 0 0 0 -0 -0 0 -0 -0 0 0 0 0 0 0 0 0 0
0 0 0 0 0 0 0 0 0 0 0 0 0 0 0 0 0 0 0 0 0 0 0 0 0 0 0 0 0 0 0 0 0 0 0 0 0 0 0 0 0 0 0
0 0 0 0 0 0 0 0 0 0 0 0 0 0 0 0 0 0 0 0 0 0 0 0 0 0 0 0 0 0 0 0 0 0 0 0 0 0 0 0 0 0 0
0 0 0 0 0 0 0 0 0 0 0 0 0 0 0 0 0 0 0 0 0 0 0 0 0 0 0 0 0 0 0 0 0 0 0 0 0 0 0 0 0 0 0
0 0 0 0 0 0 0 0 0 0 0 0 0 0 0 0 0 0 0 0 0 0 0 0 0 0 0 -0 0 0 0 0 0 0 0 0 0 0 0 0 0 0 0
0 0 0 0 0 0 0 0 0 0 0 0 0 0 0 0 0 0 0 0 0 0 0 0 0 0 -0 -0 0 0 0 0 0 0 0 0 0 0 0 0 0 0 0
0 0 0 0 0 0 0 0 0 0 0 0 0 0 0 0 0 0 0 0 0 0 0 0 0 -0 -0 -0 0 0 0 0 0 0 0 0 0 0 0 0 0 0 0
0 0 0 0 0 0 0 0 0 0 0 0 0 0 0 0 0 0 0 0 0 0 0 0 0 0 0 0 0 0 0 0 0 0 0 0 0 0 0 0 0 0 0
0 0 0 0 0 0 0 0 0 0 0 0 0 0 0 0 0 0 0 0 0 0 0 0 0 0 0 0 0 0 0 0 0 0 0 0 0 0 0 0 0 0 0
0 0 0 0 0 0 0 0 0 0 0 0 0 0 0 0 0 0 0 0 0 0 0 0 0 0 0 0 0 0 -0 -0 -0 -0 0 0 0 0 0 0 0 0 0
0 0 0 0 0 0 0 0 0 0 0 0 0 0 0 0 0 0 0 0 0 0 0 0 0 0 0 0 -0 -0 -0 -0 -0 -0 0 0 0 0 0 0 0 0 0
Wind_Speed
3 3 3 2 2 2 2 2 2 2 3 3 2 3 3 3 3 3 3 3 3 3 3 3 3 3 2 2 1 1 0 1 2 3 2 3 3 4 4 3 2 2 2
3 4 3 3 3 3 2 2 2 3 3 3 3 3 3 3 3 3 3 3 3 3 3 3 3 3 3 2 2 1 1 1 2 4 3 2 3 3 3 3 3 3 2
4 4 4 3 3 2 2 2 3 3 3 3 3 3 3 3 3 3 2 2 2 3 3 3 3 3 3 2 2 2 2 2 1 2 4 2 3 2 3 3 3 3 3
4 4 4 2 2 2 2 2 3 3 3 3 3 3 3 3 3 3 3 3 3 3 3 3 3 2 2 3 2 2 2 2 2 2 3 3 3 3 2 3 3 3 3
5 4 2 2 2 2 3 3 3 3 3 3 3 3 3 3 3 3 2 2 3 3 4 4 3 4 5 4 3 2 2 1 2 2 3 3 3 3 3 2 3 4 4
5 4 3 3 3 3 2 3 3 3 3 3 4 3 4 3 6 6 4 2 2 3 4 5 5 5 7 8 8 6 4 3 3 2 3 4 5 4 3 3 3 3 4
5 4 3 3 3 2 2 3 3 2 3 3 3 3 3 4 7 7 7 3 2 2 3 4 5 6 7 4 7 8 7 8 6 4 5 6 6 5 4 4 4 5 6
4 4 3 3 3 2 2 2 2 1 2 2 2 3 3 5 8 8 7 3 2 3 3 4 4 5 6 6 5 5 5 5 7 5 6 8 7 6 5 6 6 6 5
4 4 3 3 3 2 2 1 0 1 1 1 1 2 3 5 8 8 7 2 3 4 4 4 5 5 10 11 5 6 7 7 8 10 12 12 13 13 8 4 4 4 5
5 4 3 3 3 3 2 1 0 0 0 1 2 2 3 4 8 9 8 1 2 4 4 5 8 9 12 12 5 5 7 8 8 8 9 10 9 9 11 7 6 5 5
5 4 3 3 3 3 2 1 1 0 1 1 2 3 3 4 6 8 8 2 2 3 4 4 5 12 13 13 10 5 9 11 7 6 6 6 6 5 6 6 6 6 7
5 4 3 3 2 2 2 1 1 1 0 1 2 3 3 4 5 6 9 7 6 3 4 4 6 13 14 14 10 11 14 12 5 5 5 6 6 6 6 6 7 8 8
5 4 3 2 2 2 2 1 1 0 0 1 1 2 4 3 4 8 9 9 9 4 4 9 11 13 12 9 11 14 11 5 4 5 6 7 6 6 6 6 7 7 8
6 4 3 3 2 1 1 2 2 2 2 2 2 3 3 4 4 4 4 5 6 6 5 8 12 11 7 8 9 7 5 5 5 5 6 6 6 5 6 6 6 5 5
6 4 4 3 3 2 2 2 3 4 4 4 3 3 3 4 6 8 5 4 4 5 6 4 4 4 4 4 5 5 5 5 5 5 6 7 7 7 7 5 5 5 6
5 4 3 3 3 2 2 2 4 5 7 7 7 6 5 8 10 11 11 10 11 10 6 4 5 5 6 6 6 6 5 5 5 6 6 7 7 7 8 6 6 6 7
7 6 4 3 3 3 2 2 3 4 5 6 7 8 8 10 11 11 11 10 10 8 4 4 5 6 6 6 6 6 7 6 6 6 7 7 8 8 7 7 7 7 7
6 7 6 4 4 4 4 3 3 3 3 4 5 8 10 10 11 11 10 7 5 4 3 5 6 6 6 6 6 6 7 6 6 6 7 7 7 8 8 8 8 9 8
6 5 4 4 4 4 4 3 3 4 4 4 4 6 9 9 9 9 7 3 5 5 5 6 6 6 7 7 7 7 7 7 8 7 7 8 7 8 8 8 8 10 10
5 9 7 4 4 4 4 4 4 4 4 4 5 6 4 3 4 5 4 4 5 6 6 7 7 7 7 7 7 7 7 7 8 8 8 8 7 8 9 10 9 9 9
5 6 9 5 4 5 4 5 5 5 5 5 6 7 8 5 6 7 6 6 6 7 7 7 7 7 7 7 7 8 9 8 7 8 8 8 8 8 8 9 9 9 9
5 5 4 5 5 5 5 5 5 5 6 7 6 7 11 6 6 6 7 7 7 7 7 7 7 7 7 7 8 8 8 9 8 8 8 8 8 9 9 9 9 9 8
5 5 5 5 5 6 6 5 5 5 6 6 6 6 6 6 6 7 8 8 7 7 7 7 7 8 7 7 7 8 9 9 9 9 9 10 9 9 9 10 11 11 9
5 6 6 5 5 5 5 6 6 6 6 6 6 6 7 7 7 8 8 7 7 7 7 7 8 10 13 11 8 8 8 9 10 9 11 11 11 10 10 10 11 12 10
5 5 6 6 5 6 6 6 6 6 6 6 6 7 7 7 8 8 8 7 8 9 9 9 8 9 12 14 13 11 13 16 15 11 10 10 12 12 12 12 11 11 10
5 6 5 5 5 5 5 6 6 6 6 7 7 7 7 8 8 8 8 7 8 8 9 8 10 12 14 12 14 16 18 18 17 17 12 10 11 11 11 10 12 11 11
Wind_Direction
111 109 97 83 75 72 60 25 10 10 11 15 13 23 19 14 15 25 15 17 21 4 6 10 354 353 355 354 358 4 271 194 257 288 283 300 306 312 319 313 297 287 287
119 109 98 84 75 67 47 23 28 26 18 21 31 33 24 18 16 18 5 11 13 355 347 355 343 353 352 348 352 342 313 245 236 285 299 304 297 298 302 305 302 290 275
113 104 92 79 76 68 48 34 36 36 29 29 36 30 16 12 15 13 15 15 9 353 347 346 333 348 338 332 331 326 312 311 261 272 294 294 292 300 308 302 296 290 279
113 105 98 91 89 76 57 46 39 42 41 30 27 20 15 17 18 12 18 24 11 357 351 345 336 333 319 320 325 313 312 317 312 299 298 300 292 300 299 298 305 295 283
116 111 116 108 88 72 58 46 43 43 41 32 31 18 10 16 19 16 11 26 8 352 347 341 336 340 342 337 332 314 317 308 308 304 299 306 299 305 293 288 291 297 284
122 123 117 98 80 67 53 47 45 35 27 33 29 21 15 10 9 21 30 32 3 350 338 330 324 332 337 335 327 320 311 296 285 279 282 282 283 277 277 277 279 292 289
127 123 115 108 92 71 65 60 47 31 33 31 18 16 4 350 7 17 22 39 0 332 323 323 329 333 333 317 319 321 308 296 283 271 269 270 273 267 266 276 267 258 259
132 131 128 121 110 91 79 68 45 40 38 23 8 359 354 352 5 9 11 25 355 329 315 305 303 309 317 321 316 316 305 297 282 276 261 266 269 265 249 257 265 273 271
145 150 151 142 132 117 105 90 64 59 27 3 345 350 346 333 351 357 3 358 344 326 319 320 317 306 317 327 320 306 305 301 293 287 284 280 278 277 271 266 262 266 277
169 168 161 154 149 151 163 167 158 123 332 341 344 334 328 319 337 350 357 350 330 318 317 315 320 321 321 326 313 297 297 297 302 305 300 296 286 278 272 252 241 249 262
163 152 151 158 164 166 158 156 150 108 17 352 334 322 315 311 325 340 345 344 307 305 308 308 307 319 320 320 315 293 291 301 298 293 294 294 291 281 270 256 245 239 246
148 148 155 164 168 146 141 142 135 120 35 331 326 321 313 312 320 326 336 335 329 298 292 291 296 314 317 317 314 307 309 314 302 297 293 289 286 285 279 269 260 252 247
149 159 168 165 166 157 159 171 180 180 212 277 288 298 302 306 313 324 329 331 330 318 292 302 309 313 315 313 310 313 314 306 295 292 290 287 280 277 279 278 274 266 263
160 172 175 174 188 193 189 189 191 213 230 251 261 273 286 297 297 298 301 310 317 317 308 308 313 313 306 298 306 309 301 287 288 280 285 286 287 286 281 275 275 275 274
168 177 182 187 192 208 224 219 216 224 211 217 233 238 254 279 279 287 295 295 295 291 304 304 307 309 310 306 301 296 293 296 294 285 285 292 293 290 287 280 271 273 269
173 185 189 191 196 200 221 278 263 249 263 258 250 248 252 259 281 293 299 301 305 308 313 300 298 295 295 296 298 298 293 288 286 285 285 284 286 288 290 287 277 268 266
181 190 190 191 195 200 202 214 273 298 291 282 275 276 273 280 287 291 296 301 303 311 300 286 288 289 285 285 285 287 290 288 286 284 286 286 286 287 289 288 283 275 270
188 197 193 195 198 201 207 213 217 238 277 289 287 286 287 286 287 288 294 304 301 300 269 274 280 282 283 282 281 282 285 288 286 282 281 282 283 285 285 285 282 276 273
189 195 196 196 200 206 211 216 225 234 244 260 281 291 288 290 290 287 291 267 269 277 275 272 272 275 278 278 277 277 278 281 282 282 280 279 279 281 282 280 281 278 274
197 208 201 195 201 208 213 219 228 236 245 252 259 265 278 287 283 286 277 262 262 268 270 271 272 272 274 276 277 278 279 279 280 280 279 278 275 275 278 279 278 277 273
195 209 212 205 205 212 217 224 229 233 242 249 254 257 259 260 262 267 268 264 260 264 266 267 270 273 273 274 275 277 277 278 277 278 279 278 277 277 276 275 275 273 273
192 201 203 208 213 218 224 226 229 234 242 250 260 268 271 260 256 261 262 263 260 257 258 260 266 267 266 270 273 276 278 280 278 278 280 281 279 278 277 277 276 271 268
194 202 210 217 218 229 233 230 231 237 244 249 254 261 263 258 257 259 262 264 265 264 262 260 265 270 268 267 265 265 270 274 276 277 280 282 281 279 278 278 277 276 267
198 205 213 220 221 223 228 235 236 239 245 250 254 256 258 260 261 262 264 266 267 267 265 263 264 268 272 275 271 265 264 268 275 276 275 278 281 279 277 276 275 272 266
200 208 214 219 222 226 231 237 241 244 247 250 254 258 260 261 263 265 265 265 267 268 268 267 269 271 273 274 274 273 272 272 273 277 278 274 275 275 274 273 270 269 263
206 212 218 220 224 227 230 237 243 246 248 252 253 255 259 262 264 266 266 265 267 270 271 271 269 271 276 278 276 276 277 277 276 276 276 274 272 271 272 270 269 266 262